Total_Precipitation_Accumulation
2.14 2.25 2.28 2.27 2.35 2.35 2.47 2.66 2.89 2.80 2.53 2.34 2.23 2.21 2.26 2.35 2.65 2.41 2.29 2.27 2.03 1.91 1.89 1.93 2.00 2.06 2.24 2.48 2.64 2.69 2.64 2.63 2.65 2.68 2.72 2.86 3.05 3.19
1.94 1.99 1.99 1.98 2.20 2.32 2.36 2.48 2.72 2.90 2.82 2.46 2.26 2.10 2.18 2.16 2.52 2.39 2.39 2.49 2.19 1.93 1.85 1.92 1.97 1.96 2.03 2.09 2.23 2.36 2.45 2.48 2.45 2.45 2.53 2.61 2.71 2.90
1.76 1.74 1.75 1.86 2.00 2.06 2.17 2.28 2.52 2.81 2.92 2.64 2.35 2.20 2.27 2.34 2.40 2.39 2.29 2.16 2.06 2.06 1.90 1.86 2.03 2.21 2.09 1.93 1.90 1.94 2.08 2.20 2.30 2.30 2.35 2.46 2.52 2.61
1.56 1.59 1.46 1.54 1.75 1.87 2.02 2.10 2.24 2.45 2.63 2.58 2.36 2.29 2.24 2.28 2.42 2.43 2.22 1.97 1.86 2.01 1.90 1.84 1.97 2.34 2.38 2.10 1.95 1.82 1.78 1.82 1.91 2.03 2.12 2.20 2.31 2.45
1.46 1.46 1.46 1.61 1.69 1.82 1.94 1.99 2.14 2.20 2.43 2.42 2.26 2.27 2.28 2.26 2.41 2.33 2.11 2.08 1.69 1.70 1.76 1.80 1.87 2.44 2.83 2.59 2.27 2.05 1.82 1.68 1.61 1.71 1.83 1.95 2.00 2.08
1.40 1.42 1.45 1.54 1.65 1.85 1.91 2.02 2.18 2.29 2.40 2.43 2.34 2.33 2.34 2.39 2.49 2.50 2.31 2.11 1.82 1.48 1.60 1.72 1.89 2.32 2.90 3.06 2.66 2.38 2.12 1.89 1.69 1.59 1.61 1.62 1.63 1.65
1.41 1.38 1.34 1.37 1.51 1.65 1.71 1.95 2.22 2.38 2.40 2.46 2.42 2.39 2.36 2.46 2.34 2.24 2.22 2.10 1.85 1.62 1.67 1.58 1.81 2.43 3.06 3.38 3.16 2.56 2.14 1.95 1.80 1.64 1.54 1.47 1.43 1.43
1.45 1.42 1.25 1.23 1.27 1.33 1.39 1.51 1.84 2.11 2.26 2.36 2.35 2.29 2.23 2.27 2.25 2.16 2.20 2.22 2.04 1.67 1.71 1.78 2.04 2.85 3.39 3.62 3.54 2.72 2.05 1.84 1.76 1.69 1.61 1.51 1.40 1.33
1.45 1.50 1.32 1.16 1.27 1.30 1.28 1.27 1.40 1.65 1.96 2.20 2.26 2.10 2.15 2.22 2.32 2.29 2.22 2.22 2.14 1.81 1.81 1.90 2.21 2.86 3.26 3.64 3.62 2.86 2.24 1.90 1.83 1.78 1.68 1.58 1.48 1.37
1.35 1.38 1.45 1.41 1.26 1.27 1.34 1.41 1.52 1.62 1.70 1.76 1.96 2.05 2.09 2.09 2.10 2.12 2.20 2.24 2.10 1.82 1.86 2.10 2.20 2.60 2.99 3.51 3.46 2.80 2.31 2.01 1.86 1.78 1.66 1.52 1.42 1.38
1.18 1.14 1.19 1.23 1.17 1.21 1.38 1.62 1.77 1.91 1.72 1.69 1.77 1.95 2.00 1.87 1.77 1.91 2.19 2.33 2.16 1.83 1.73 2.00 2.14 2.34 2.71 3.05 2.92 2.58 2.23 2.00 1.82 1.67 1.58 1.50 1.42 1.40
1.12 1.10 1.13 1.13 1.11 1.19 1.38 1.74 1.95 2.02 1.80 1.67 1.78 1.94 1.89 1.83 1.84 1.95 2.20 2.25 2.14 2.03 1.74 1.88 2.00 2.15 2.55 2.64 2.43 2.16 2.07 2.06 1.90 1.74 1.61 1.50 1.42 1.34
1.03 1.09 1.13 1.12 1.07 1.16 1.38 1.63 1.86 1.91 1.84 1.80 1.86 1.92 1.96 1.98 1.91 1.92 2.04 2.06 2.08 2.01 1.66 1.86 2.06 2.16 2.39 2.47 2.35 2.17 1.96 1.93 1.89 1.94 1.90 1.67 1.49 1.41
1.07 1.07 1.10 1.12 1.10 1.22 1.33 1.61 1.89 2.04 1.92 1.79 1.74 1.75 1.74 1.76 1.74 1.67 1.69 1.72 1.75 1.81 1.74 1.88 2.17 2.30 2.27 2.18 2.26 2.17 2.08 2.00 1.90 1.94 2.02 1.92 1.72 1.66
0.93 1.07 1.06 1.02 1.16 1.43 1.59 1.75 1.97 2.12 2.00 1.77 1.67 1.57 1.52 1.52 1.49 1.53 1.53 1.53 1.46 1.41 1.34 1.55 1.92 2.15 2.21 2.13 2.13 2.10 2.24 2.38 2.21 2.13 2.04 1.91 1.79 1.67
0.78 0.99 1.13 1.20 1.36 1.65 1.88 1.99 2.05 2.02 1.85 1.67 1.56 1.50 1.43 1.42 1.44 1.42 1.48 1.49 1.53 1.48 1.34 1.38 1.64 1.94 2.08 2.00 2.04 2.10 2.20 2.61 2.57 2.32 2.17 2.09 1.93 1.78
0.75 0.95 1.14 1.25 1.46 1.69 1.83 1.85 1.85 1.80 1.74 1.61 1.50 1.45 1.43 1.41 1.41 1.41 1.44 1.40 1.44 1.42 1.45 1.47 1.56 1.70 1.76 1.84 1.98 2.00 2.14 2.35 2.39 2.22 2.16 2.21 2.14 1.94
0.80 1.04 1.23 1.33 1.50 1.63 1.74 1.71 1.65 1.62 1.59 1.54 1.50 1.42 1.38 1.38 1.42 1.41 1.38 1.36 1.38 1.32 1.29 1.34 1.39 1.47 1.57 1.69 1.83 1.90 1.91 2.06 2.10 2.04 1.93 2.02 2.16 2.06
0.84 1.08 1.30 1.42 1.53 1.57 1.59 1.57 1.53 1.48 1.41 1.40 1.39 1.35 1.32 1.33 1.35 1.34 1.30 1.28 1.27 1.23 1.16 1.20 1.24 1.31 1.46 1.72 1.80 1.80 1.79 1.82 1.90 1.87 1.81 1.83 2.01 2.08
0.90 1.09 1.29 1.37 1.42 1.47 1.46 1.44 1.42 1.38 1.33 1.33 1.39 1.34 1.26 1.22 1.18 1.17 1.17 1.14 1.12 1.07 1.07 1.10 1.10 1.21 1.38 1.57 1.84 1.88 1.70 1.57 1.61 1.69 1.64 1.68 1.84 1.86
0.89 1.00 1.10 1.20 1.28 1.34 1.34 1.32 1.31 1.27 1.22 1.21 1.24 1.25 1.20 1.12 1.05 1.00 0.99 0.92 0.90 0.93 1.01 1.10 1.10 1.02 1.05 1.21 1.49 1.65 1.63 1.62 1.57 1.54 1.50 1.60 1.63 1.52
0.87 0.93 0.96 0.98 1.06 1.14 1.13 1.09 1.11 1.09 1.07 1.08 1.07 1.10 1.13 1.08 0.99 0.92 0.89 0.88 0.91 0.90 0.91 0.93 0.89 0.90 1.01 1.23 1.40 1.49 1.46 1.37 1.36 1.33 1.29 1.29 1.30 1.41
0.77 0.80 0.83 0.85 0.84 0.86 0.92 0.93 0.97 1.04 1.06 1.04 1.02 1.01 0.99 0.95 0.89 0.85 0.85 0.83 0.80 0.79 0.84 0.91 0.92 0.95 1.02 1.12 1.26 1.29 1.23 1.18 1.17 1.19 1.24 1.26 1.18 1.23